Weather History for Parsons, KS

Change the Weather History Date:

Saturday, April 12, 2014

  Actual Average Record
Temperature  
Mean Temperature 70 °F -  
Max Temperature 82 °F 69 °F 98 °F (1972)
Min Temperature 59 °F 46 °F 25 °F (1957)
Cooling Degree Days 6    
Growing Degree Days 20 (Base 50)    
Moisture  
Dew Point 58 °F    
Average Humidity 52    
Maximum Humidity 81    
Minimum Humidity 42    
Precipitation  
Precipitation 0.00 in - - ()
Sea Level Pressure  
Sea Level Pressure 29.72 in    
Wind  
Wind Speed 17 mph (South)    
Max Wind Speed 25 mph    
Max Gust Speed 36 mph    
Visibility 10 miles    
Events Fog , Rain , Tornado    
Averages and records for this station are not official NWS values.
T = Trace of Precipitation, MM = Missing Value Source: NWS Daily Summary

Daily Weather History Graph

Daily Weather History Graph

Search for Another Location

Airport:

Trip Planner

Search our weather history database for the weather conditions in past years. The results will help you decide how hot, cold, wet, or windy it might be!

Date:

Astronomy

Apr. 12, 2014 Rise Set
Actual Time 6:51 AM CDT 7:54 PM CDT
Civil Twilight 6:24 AM CDT 8:21 PM CDT
Nautical Twilight 5:53 AM CDT 8:53 PM CDT
Astronomical Twilight 5:20 AM CDT 9:26 PM CDT
Moon 5:36 PM CDT (4/12) 5:15 AM CDT (4/12)
Length of Visible Light 13h 56m
Length of Day
13h 02m
Waxing Gibbous, 93% of the Moon is Illuminated
Apr 12
Waxing Gibbous
Apr 15
Full
Apr 22
Last Quarter
Apr 29
New
May 6
First Quarter

Hourly Weather History & Observations

Time (CDT) Temp. Heat Index Dew Point Humidity Pressure Visibility Wind Dir Wind Speed Gust Speed Precip Events Conditions
12:52 AM 62.1 °F - 54.0 °F 75% 29.91 in 9.0 mi South 5.8 mph - N/A   Clear
1:52 AM 63.0 °F - 55.0 °F 75% 29.89 in 10.0 mi Calm Calm - N/A   Overcast
2:52 AM 62.1 °F - 54.0 °F 75% 29.87 in 10.0 mi SSE 3.5 mph - N/A   Mostly Cloudy
3:52 AM 59.0 °F - 53.1 °F 81% 29.85 in 10.0 mi SE 3.5 mph - N/A   Partly Cloudy
4:52 AM 61.0 °F - 54.0 °F 78% 29.82 in 10.0 mi SSE 8.1 mph - N/A   Partly Cloudy
5:52 AM 64.0 °F - 55.0 °F 73% 29.82 in 10.0 mi South 6.9 mph - N/A   Mostly Cloudy
6:52 AM 64.0 °F - 55.9 °F 75% 29.81 in 10.0 mi SSE 6.9 mph - N/A   Scattered Clouds
7:52 AM 64.9 °F - 57.0 °F 75% 29.81 in 10.0 mi South 11.5 mph 19.6 mph N/A   Clear
8:52 AM 68.0 °F - 57.9 °F 70% 29.81 in 10.0 mi South 16.1 mph 25.3 mph N/A   Scattered Clouds
9:08 AM 69.1 °F - 57.9 °F 68% 29.83 in 10.0 mi South 15.0 mph 27.6 mph N/A   Mostly Cloudy
9:16 AM 69.1 °F - 57.9 °F 68% 29.83 in 10.0 mi South 13.8 mph 24.2 mph N/A   Scattered Clouds
9:52 AM 69.1 °F - 57.9 °F 68% 29.81 in 10.0 mi South 18.4 mph 31.1 mph N/A   Mostly Cloudy
10:26 AM 70.0 °F - 57.9 °F 65% 29.83 in 10.0 mi South 19.6 mph 31.1 mph N/A Fog , Rain , Tornado Funnel Cloud
10:28 AM 70.0 °F - 57.9 °F 65% 29.83 in 10.0 mi South 21.9 mph 31.1 mph N/A Fog , Rain , Tornado Funnel Cloud
10:30 AM 70.0 °F - 57.9 °F 65% 29.83 in 10.0 mi South 17.3 mph 31.1 mph N/A Fog , Rain , Tornado Funnel Cloud
10:32 AM 70.0 °F - 57.9 °F 65% 29.83 in 10.0 mi South 18.4 mph 31.1 mph N/A Fog , Rain , Tornado Funnel Cloud
10:34 AM 70.0 °F - 57.9 °F 65% 29.83 in 10.0 mi South 20.7 mph 29.9 mph N/A Fog , Rain , Tornado Funnel Cloud
10:36 AM 70.0 °F - 57.9 °F 65% 29.83 in 10.0 mi South 20.7 mph 29.9 mph N/A Fog , Rain , Tornado Funnel Cloud
10:38 AM 70.0 °F - 57.9 °F 65% 29.83 in 10.0 mi South 19.6 mph 29.9 mph N/A Fog , Rain , Tornado Funnel Cloud
10:40 AM 70.0 °F - 57.9 °F 65% 29.83 in 10.0 mi South 18.4 mph 29.9 mph N/A Fog , Rain , Tornado Funnel Cloud
10:42 AM 70.0 °F - 57.9 °F 65% 29.83 in 10.0 mi South 21.9 mph 29.9 mph N/A Fog , Rain , Tornado Funnel Cloud
10:44 AM 70.0 °F - 57.9 °F 65% 29.83 in 10.0 mi South 19.6 mph 29.9 mph N/A Fog , Rain , Tornado Funnel Cloud
10:46 AM 69.8 °F - 57.2 °F 64% 29.83 in 10.0 mi South 18.4 mph 29.9 mph N/A Fog , Rain , Tornado Funnel Cloud
10:48 AM 69.8 °F - 57.2 °F 64% 29.83 in 10.0 mi South 18.4 mph 29.9 mph N/A Fog , Rain , Tornado Funnel Cloud
10:50 AM 69.8 °F - 57.2 °F 64% 29.83 in 10.0 mi South 15.0 mph 29.9 mph N/A Fog , Rain , Tornado Funnel Cloud
10:52 AM 69.1 °F - 57.2 °F 66% 29.83 in 10.0 mi South 18.4 mph 28.8 mph N/A Fog , Rain , Tornado Funnel Cloud
10:54 AM 69.8 °F - 57.2 °F 64% 29.83 in 10.0 mi South 18.4 mph 27.6 mph N/A Fog , Rain , Tornado Funnel Cloud
10:56 AM 69.8 °F - 57.2 °F 64% 29.83 in 10.0 mi South 15.0 mph 27.6 mph N/A Fog , Rain , Tornado Funnel Cloud
10:58 AM 69.8 °F - 57.2 °F 64% 29.83 in 10.0 mi South 15.0 mph 27.6 mph N/A Fog , Rain , Tornado Funnel Cloud
11:00 AM 69.8 °F - 57.2 °F 64% 29.83 in 10.0 mi South 15.0 mph 27.6 mph N/A Fog , Rain , Tornado Funnel Cloud
11:02 AM 69.8 °F - 57.2 °F 64% 29.83 in 10.0 mi South 19.6 mph 26.5 mph N/A Fog , Rain , Tornado Funnel Cloud
11:04 AM 69.8 °F - 57.2 °F 64% 29.83 in 10.0 mi South 19.6 mph 26.5 mph N/A Fog , Rain , Tornado Funnel Cloud
11:06 AM 69.8 °F - 57.2 °F 64% 29.83 in 10.0 mi South 18.4 mph 26.5 mph N/A Fog , Rain , Tornado Funnel Cloud
11:08 AM 69.8 °F - 57.2 °F 64% 29.83 in 10.0 mi South 16.1 mph 26.5 mph N/A Fog , Rain , Tornado Funnel Cloud
11:10 AM 69.8 °F - 57.2 °F 64% 29.83 in 10.0 mi South 17.3 mph 26.5 mph N/A Fog , Rain , Tornado Funnel Cloud
11:12 AM 71.6 °F - 57.2 °F 60% 29.82 in 10.0 mi South 18.4 mph 26.5 mph N/A Fog , Rain , Tornado Funnel Cloud
11:14 AM 71.6 °F - 57.2 °F 60% 29.82 in 10.0 mi South 18.4 mph 26.5 mph N/A Fog , Rain , Tornado Funnel Cloud
11:16 AM 71.6 °F - 57.2 °F 60% 29.82 in 10.0 mi South 19.6 mph 28.8 mph N/A Fog , Rain , Tornado Funnel Cloud
11:18 AM 71.6 °F - 57.2 °F 60% 29.82 in 10.0 mi South 19.6 mph 28.8 mph N/A Fog , Rain , Tornado Funnel Cloud
11:22 AM 71.1 °F - 57.9 °F 63% 29.82 in 10.0 mi South 20.7 mph 32.2 mph N/A Fog , Rain , Tornado Funnel Cloud
11:24 AM 72.0 °F - 59.0 °F 64% 29.82 in 10.0 mi South 18.4 mph 32.2 mph N/A Fog , Rain , Tornado Funnel Cloud
11:26 AM 72.0 °F - 59.0 °F 64% 29.82 in 10.0 mi South 19.6 mph 32.2 mph N/A Fog , Rain , Tornado Funnel Cloud
11:28 AM 72.0 °F - 57.9 °F 61% 29.82 in 10.0 mi South 20.7 mph 32.2 mph N/A Fog , Rain , Tornado Funnel Cloud
11:30 AM 72.0 °F - 57.9 °F 61% 29.82 in 10.0 mi South 17.3 mph 32.2 mph N/A Fog , Rain , Tornado Funnel Cloud
11:32 AM 72.0 °F - 59.0 °F 64% 29.82 in 10.0 mi South 16.1 mph 31.1 mph N/A Fog , Rain , Tornado Funnel Cloud
11:34 AM 72.0 °F - 59.0 °F 64% 29.82 in 10.0 mi South 17.3 mph 31.1 mph N/A Fog , Rain , Tornado Funnel Cloud
11:36 AM 72.0 °F - 57.9 °F 61% 29.81 in 10.0 mi South 20.7 mph 28.8 mph N/A Fog , Rain , Tornado Funnel Cloud
11:38 AM 72.0 °F - 57.9 °F 61% 29.81 in 10.0 mi South 18.4 mph 27.6 mph N/A Fog , Rain , Tornado Funnel Cloud
11:40 AM 71.1 °F - 57.9 °F 63% 29.81 in 10.0 mi South 18.4 mph 27.6 mph N/A Fog , Rain , Tornado Funnel Cloud
11:42 AM 72.0 °F - 57.9 °F 61% 29.81 in 10.0 mi South 16.1 mph 27.6 mph N/A Fog , Rain , Tornado Funnel Cloud
11:44 AM 72.0 °F - 57.9 °F 61% 29.81 in 10.0 mi South 13.8 mph 27.6 mph N/A Fog , Rain , Tornado Funnel Cloud
11:46 AM 71.6 °F - 57.2 °F 60% 29.81 in 10.0 mi South 16.1 mph 25.3 mph N/A Fog , Rain , Tornado Funnel Cloud
11:48 AM 71.6 °F - 57.2 °F 60% 29.81 in 10.0 mi South 15.0 mph 25.3 mph N/A Fog , Rain , Tornado Funnel Cloud
11:50 AM 71.6 °F - 57.2 °F 60% 29.81 in 10.0 mi South 19.6 mph 29.9 mph N/A Fog , Rain , Tornado Funnel Cloud
11:52 AM 72.0 °F - 57.2 °F 60% 29.81 in 10.0 mi South 21.9 mph 29.9 mph N/A Fog , Rain , Tornado Funnel Cloud
11:54 AM 71.6 °F - 57.2 °F 60% 29.80 in 10.0 mi South 18.4 mph 29.9 mph N/A Fog , Rain , Tornado Funnel Cloud
11:56 AM 73.4 °F - 59.0 °F 61% 29.80 in 10.0 mi South 17.3 mph 29.9 mph N/A Fog , Rain , Tornado Funnel Cloud
11:58 AM 73.4 °F - 59.0 °F 61% 29.80 in 10.0 mi South 17.3 mph 29.9 mph N/A Fog , Rain , Tornado Funnel Cloud
12:00 PM 73.4 °F - 59.0 °F 61% 29.80 in 10.0 mi South 16.1 mph 25.3 mph N/A Fog , Rain , Tornado Funnel Cloud
12:02 PM 73.4 °F - 59.0 °F 61% 29.80 in 10.0 mi South 17.3 mph 25.3 mph N/A Fog , Rain , Tornado Funnel Cloud
12:04 PM 73.4 °F - 59.0 °F 61% 29.80 in 10.0 mi South 17.3 mph 25.3 mph N/A Fog , Rain , Tornado Funnel Cloud
12:06 PM 73.4 °F - 59.0 °F 61% 29.80 in 10.0 mi South 17.3 mph 25.3 mph N/A Fog , Rain , Tornado Funnel Cloud
12:10 PM 73.0 °F - 57.9 °F 59% 29.79 in 10.0 mi South 20.7 mph 29.9 mph N/A Fog , Rain , Tornado Funnel Cloud
12:12 PM 73.9 °F - 57.9 °F 57% 29.79 in 10.0 mi South 19.6 mph 29.9 mph N/A Fog , Rain , Tornado Funnel Cloud
12:14 PM 73.0 °F - 57.9 °F 59% 29.79 in 10.0 mi South 25.3 mph 33.4 mph N/A Fog , Rain , Tornado Funnel Cloud
12:16 PM 73.0 °F - 57.9 °F 59% 29.79 in 10.0 mi South 20.7 mph 33.4 mph N/A Fog , Rain , Tornado Funnel Cloud
12:18 PM 73.9 °F - 57.9 °F 57% 29.79 in 10.0 mi South 18.4 mph 33.4 mph N/A Fog , Rain , Tornado Funnel Cloud
12:20 PM 75.0 °F - 59.0 °F 57% 29.79 in 10.0 mi South 19.6 mph 33.4 mph N/A Fog , Rain , Tornado Funnel Cloud
12:22 PM 75.0 °F - 57.9 °F 55% 29.79 in 10.0 mi South 23.0 mph 33.4 mph N/A Fog , Rain , Tornado Funnel Cloud
12:24 PM 73.9 °F - 57.9 °F 57% 29.79 in 10.0 mi South 19.6 mph 32.2 mph N/A Fog , Rain , Tornado Funnel Cloud
12:26 PM 73.9 °F - 57.9 °F 57% 29.79 in 10.0 mi South 21.9 mph 32.2 mph N/A Fog , Rain , Tornado Funnel Cloud
12:28 PM 73.9 °F - 57.9 °F 57% 29.78 in 10.0 mi South 19.6 mph 32.2 mph N/A Fog , Rain , Tornado Funnel Cloud
12:30 PM 75.0 °F - 59.0 °F 57% 29.78 in 10.0 mi South 21.9 mph 32.2 mph N/A Fog , Rain , Tornado Funnel Cloud
12:32 PM 75.0 °F - 59.0 °F 57% 29.78 in 10.0 mi South 20.7 mph 29.9 mph N/A Fog , Rain , Tornado Funnel Cloud
12:34 PM 75.0 °F - 57.9 °F 55% 29.78 in 10.0 mi South 20.7 mph 31.1 mph N/A Fog , Rain , Tornado Funnel Cloud
12:36 PM 75.0 °F - 57.9 °F 55% 29.78 in 10.0 mi South 21.9 mph 33.4 mph N/A Fog , Rain , Tornado Funnel Cloud
12:38 PM 75.0 °F - 57.9 °F 55% 29.77 in 10.0 mi South 21.9 mph 33.4 mph N/A Fog , Rain , Tornado Funnel Cloud
12:40 PM 75.0 °F - 57.9 °F 55% 29.77 in 10.0 mi South 20.7 mph 33.4 mph N/A Fog , Rain , Tornado Funnel Cloud
12:42 PM 75.0 °F - 57.9 °F 55% 29.77 in 10.0 mi South 20.7 mph 33.4 mph N/A Fog , Rain , Tornado Funnel Cloud
12:44 PM 75.0 °F - 57.9 °F 55% 29.77 in 10.0 mi South 19.6 mph 33.4 mph N/A Fog , Rain , Tornado Funnel Cloud
12:46 PM 75.2 °F - 57.2 °F 53% 29.77 in 10.0 mi South 17.3 mph 33.4 mph N/A Fog , Rain , Tornado Funnel Cloud
12:50 PM 77.0 °F - 57.2 °F 50% 29.77 in 10.0 mi South 18.4 mph 31.1 mph N/A Fog , Rain , Tornado Funnel Cloud
12:52 PM 77.0 °F - 57.2 °F 50% 29.77 in 10.0 mi South 20.7 mph 31.1 mph N/A Fog , Rain , Tornado Funnel Cloud
12:54 PM 75.2 °F - 57.2 °F 53% 29.77 in 10.0 mi South 20.7 mph 31.1 mph N/A Fog , Rain , Tornado Funnel Cloud
12:56 PM 75.2 °F - 57.2 °F 53% 29.77 in 10.0 mi South 19.6 mph 28.8 mph N/A Fog , Rain , Tornado Funnel Cloud
12:58 PM 75.2 °F - 57.2 °F 53% 29.77 in 10.0 mi South 23.0 mph 28.8 mph N/A Fog , Rain , Tornado Funnel Cloud
1:00 PM 75.2 °F - 57.2 °F 53% 29.76 in 10.0 mi South 20.7 mph 28.8 mph N/A Fog , Rain , Tornado Funnel Cloud
1:02 PM 75.9 °F - 57.9 °F 54% 29.76 in 10.0 mi South 18.4 mph 32.2 mph N/A Fog , Rain , Tornado Funnel Cloud
1:04 PM 77.0 °F - 57.9 °F 52% 29.76 in 10.0 mi South 20.7 mph 32.2 mph N/A Fog , Rain , Tornado Funnel Cloud
1:06 PM 77.0 °F - 57.9 °F 52% 29.76 in 10.0 mi South 19.6 mph 32.2 mph N/A Fog , Rain , Tornado Funnel Cloud
1:08 PM 77.0 °F - 57.9 °F 52% 29.76 in 10.0 mi South 19.6 mph 32.2 mph N/A Fog , Rain , Tornado Funnel Cloud
1:10 PM 77.0 °F - 57.9 °F 52% 29.76 in 10.0 mi South 16.1 mph 32.2 mph N/A Fog , Rain , Tornado Funnel Cloud
1:12 PM 77.0 °F - 57.9 °F 52% 29.75 in 10.0 mi South 23.0 mph 31.1 mph N/A Fog , Rain , Tornado Funnel Cloud
1:14 PM 77.0 °F - 57.9 °F 52% 29.76 in 10.0 mi South 20.7 mph 31.1 mph N/A Fog , Rain , Tornado Funnel Cloud
1:16 PM 77.0 °F - 57.9 °F 52% 29.75 in 10.0 mi South 17.3 mph 28.8 mph N/A Fog , Rain , Tornado Funnel Cloud
1:18 PM 77.0 °F - 57.9 °F 52% 29.75 in 10.0 mi South 19.6 mph 28.8 mph N/A Fog , Rain , Tornado Funnel Cloud
1:20 PM 77.0 °F - 57.9 °F 52% 29.75 in 10.0 mi South 16.1 mph 28.8 mph N/A Fog , Rain , Tornado Funnel Cloud
1:22 PM 77.0 °F - 57.9 °F 52% 29.75 in 10.0 mi South 17.3 mph 28.8 mph N/A Fog , Rain , Tornado Funnel Cloud
1:24 PM 77.0 °F - 57.9 °F 52% 29.75 in 10.0 mi South 21.9 mph 28.8 mph N/A Fog , Rain , Tornado Funnel Cloud
1:26 PM 77.0 °F - 57.9 °F 52% 29.75 in 10.0 mi South 24.2 mph 33.4 mph N/A Fog , Rain , Tornado Funnel Cloud
1:28 PM 77.0 °F - 57.9 °F 52% 29.75 in 10.0 mi South 20.7 mph 33.4 mph N/A Fog , Rain , Tornado Funnel Cloud
1:30 PM 75.9 °F - 57.9 °F 54% 29.75 in 10.0 mi South 20.7 mph 33.4 mph N/A Fog , Rain , Tornado Funnel Cloud
1:32 PM 75.9 °F - 57.9 °F 54% 29.74 in 10.0 mi South 17.3 mph 33.4 mph N/A Fog , Rain , Tornado Funnel Cloud
1:34 PM 75.9 °F - 57.9 °F 54% 29.74 in 10.0 mi South 19.6 mph 33.4 mph N/A Fog , Rain , Tornado Funnel Cloud
1:36 PM 77.0 °F - 57.9 °F 52% 29.74 in 10.0 mi South 16.1 mph 31.1 mph N/A Fog , Rain , Tornado Funnel Cloud
1:38 PM 78.1 °F - 57.9 °F 50% 29.74 in 9.0 mi South 18.4 mph 31.1 mph N/A Fog , Rain , Tornado Funnel Cloud
1:40 PM 78.1 °F - 57.9 °F 50% 29.74 in 9.0 mi South 25.3 mph 34.5 mph N/A Fog , Rain , Tornado Funnel Cloud
1:42 PM 77.0 °F - 57.9 °F 52% 29.74 in 10.0 mi South 20.7 mph 34.5 mph N/A Fog , Rain , Tornado Funnel Cloud
1:44 PM 75.9 °F - 57.9 °F 54% 29.74 in 10.0 mi South 20.7 mph 34.5 mph N/A Fog , Rain , Tornado Funnel Cloud
1:46 PM 75.2 °F - 57.2 °F 53% 29.73 in 10.0 mi South 24.2 mph 34.5 mph N/A Fog , Rain , Tornado Funnel Cloud
1:48 PM 75.2 °F - 57.2 °F 53% 29.73 in 10.0 mi South 21.9 mph 34.5 mph N/A Fog , Rain , Tornado Funnel Cloud
1:50 PM 75.2 °F - 57.2 °F 53% 29.73 in 10.0 mi South 18.4 mph 32.2 mph N/A Fog , Rain , Tornado Funnel Cloud
1:52 PM 75.9 °F - 57.9 °F 54% 29.73 in 10.0 mi South 19.6 mph 31.1 mph N/A Fog , Rain , Tornado Funnel Cloud
1:56 PM 78.1 °F - 57.9 °F 50% 29.73 in 10.0 mi South 23.0 mph 31.1 mph N/A Fog , Rain , Tornado Funnel Cloud
1:58 PM 78.1 °F - 57.9 °F 50% 29.73 in 10.0 mi South 24.2 mph 34.5 mph N/A Fog , Rain , Tornado Funnel Cloud
2:00 PM 78.1 °F - 57.9 °F 50% 29.73 in 10.0 mi South 21.9 mph 34.5 mph N/A Fog , Rain , Tornado Funnel Cloud
2:02 PM 78.1 °F - 57.9 °F 50% 29.72 in 10.0 mi South 24.2 mph 34.5 mph N/A Fog , Rain , Tornado Funnel Cloud
2:04 PM 78.1 °F - 57.9 °F 50% 29.72 in 10.0 mi South 23.0 mph 34.5 mph N/A Fog , Rain , Tornado Funnel Cloud
2:06 PM 78.1 °F - 57.9 °F 50% 29.72 in 10.0 mi South 23.0 mph 34.5 mph N/A Fog , Rain , Tornado Funnel Cloud
2:08 PM 78.1 °F - 57.9 °F 50% 29.72 in 10.0 mi South 23.0 mph 34.5 mph N/A Fog , Rain , Tornado Funnel Cloud
2:10 PM 78.1 °F - 57.9 °F 50% 29.72 in 10.0 mi South 23.0 mph 34.5 mph N/A Fog , Rain , Tornado Funnel Cloud
2:12 PM 78.1 °F - 57.9 °F 50% 29.72 in 10.0 mi South 25.3 mph 32.2 mph N/A Fog , Rain , Tornado Funnel Cloud
2:14 PM 78.1 °F - 57.9 °F 50% 29.72 in 10.0 mi South 21.9 mph 32.2 mph N/A Fog , Rain , Tornado Funnel Cloud
2:16 PM 79.0 °F - 57.9 °F 48% 29.72 in 10.0 mi South 18.4 mph 32.2 mph N/A Fog , Rain , Tornado Funnel Cloud
2:18 PM 79.0 °F - 57.9 °F 48% 29.71 in 10.0 mi South 18.4 mph 32.2 mph N/A Fog , Rain , Tornado Funnel Cloud
2:20 PM 79.0 °F - 57.9 °F 48% 29.71 in 10.0 mi South 21.9 mph 32.2 mph N/A Fog , Rain , Tornado Funnel Cloud
2:22 PM 79.0 °F - 57.9 °F 48% 29.71 in 10.0 mi South 18.4 mph 32.2 mph N/A Fog , Rain , Tornado Funnel Cloud
2:24 PM 79.0 °F - 57.9 °F 48% 29.71 in 10.0 mi South 24.2 mph 32.2 mph N/A Fog , Rain , Tornado Funnel Cloud
2:26 PM 79.0 °F - 57.9 °F 48% 29.71 in 10.0 mi South 25.3 mph 33.4 mph N/A Fog , Rain , Tornado Funnel Cloud
2:28 PM 79.0 °F - 57.9 °F 48% 29.71 in 10.0 mi South 21.9 mph 33.4 mph N/A Fog , Rain , Tornado Funnel Cloud
2:30 PM 79.0 °F - 57.9 °F 48% 29.71 in 10.0 mi South 20.7 mph 33.4 mph N/A Fog , Rain , Tornado Funnel Cloud
2:32 PM 79.0 °F - 57.9 °F 48% 29.71 in 10.0 mi South 17.3 mph 33.4 mph N/A Fog , Rain , Tornado Funnel Cloud
2:34 PM 79.0 °F - 57.9 °F 48% 29.71 in 10.0 mi South 19.6 mph 33.4 mph N/A Fog , Rain , Tornado Funnel Cloud
2:36 PM 80.1 °F 80.6 °F 57.9 °F 47% 29.71 in 10.0 mi South 20.7 mph 28.8 mph N/A Fog , Rain , Tornado Funnel Cloud
2:38 PM 80.1 °F 80.6 °F 57.9 °F 47% 29.71 in 10.0 mi South 20.7 mph 32.2 mph N/A Fog , Rain , Tornado Funnel Cloud
2:40 PM 79.0 °F - 57.0 °F 47% 29.70 in 10.0 mi South 24.2 mph 33.4 mph N/A Fog , Rain , Tornado Funnel Cloud
2:42 PM 79.0 °F - 57.0 °F 47% 29.70 in 10.0 mi South 24.2 mph 33.4 mph N/A Fog , Rain , Tornado Funnel Cloud
2:44 PM 79.0 °F - 57.0 °F 47% 29.71 in 10.0 mi South 23.0 mph 33.4 mph N/A Fog , Rain , Tornado Funnel Cloud
2:46 PM 80.6 °F 80.8 °F 57.2 °F 45% 29.71 in 10.0 mi South 19.6 mph 33.4 mph N/A Fog , Rain , Tornado Funnel Cloud
2:48 PM 80.6 °F 80.8 °F 57.2 °F 45% 29.70 in 10.0 mi South 24.2 mph 33.4 mph N/A Fog , Rain , Tornado Funnel Cloud
2:50 PM 80.6 °F 80.8 °F 57.2 °F 45% 29.70 in 10.0 mi South 23.0 mph 33.4 mph N/A Fog , Rain , Tornado Funnel Cloud
2:52 PM 80.1 °F 80.6 °F 57.9 °F 47% 29.70 in 10.0 mi South 23.0 mph 33.4 mph N/A Fog , Rain , Tornado Funnel Cloud
2:54 PM 80.1 °F 80.6 °F 57.9 °F 47% 29.70 in 10.0 mi South 21.9 mph 33.4 mph N/A Fog , Rain , Tornado Funnel Cloud
2:56 PM 80.1 °F 80.6 °F 57.9 °F 47% 29.70 in 10.0 mi South 20.7 mph 33.4 mph N/A Fog , Rain , Tornado Funnel Cloud
2:58 PM 80.1 °F 80.6 °F 57.9 °F 47% 29.70 in 10.0 mi South 21.9 mph 33.4 mph N/A Fog , Rain , Tornado Funnel Cloud
3:00 PM 80.1 °F 80.6 °F 57.9 °F 47% 29.70 in 10.0 mi South 24.2 mph 32.2 mph N/A Fog , Rain , Tornado Funnel Cloud
3:02 PM 80.1 °F 80.6 °F 57.9 °F 47% 29.70 in 10.0 mi South 23.0 mph 32.2 mph N/A Fog , Rain , Tornado Funnel Cloud
3:04 PM 80.1 °F 80.6 °F 57.9 °F 47% 29.69 in 10.0 mi South 23.0 mph 32.2 mph N/A Fog , Rain , Tornado Funnel Cloud
3:06 PM 80.1 °F 80.6 °F 57.9 °F 47% 29.69 in 10.0 mi South 19.6 mph 32.2 mph N/A Fog , Rain , Tornado Funnel Cloud
3:08 PM 80.1 °F 80.6 °F 57.9 °F 47% 29.69 in 10.0 mi South 21.9 mph 32.2 mph N/A Fog , Rain , Tornado Funnel Cloud
3:10 PM 81.0 °F 81.1 °F 57.9 °F 45% 29.69 in 10.0 mi South 18.4 mph 32.2 mph N/A Fog , Rain , Tornado Funnel Cloud
3:12 PM 80.1 °F 80.6 °F 57.9 °F 47% 29.69 in 10.0 mi South 24.2 mph 34.5 mph N/A Fog , Rain , Tornado Funnel Cloud
3:14 PM 80.1 °F 80.6 °F 57.9 °F 47% 29.69 in 10.0 mi South 21.9 mph 34.5 mph N/A Fog , Rain , Tornado Funnel Cloud
3:16 PM 80.1 °F 80.6 °F 57.9 °F 47% 29.69 in 10.0 mi South 18.4 mph 34.5 mph N/A Fog , Rain , Tornado Funnel Cloud
3:18 PM 81.0 °F 81.1 °F 57.9 °F 45% 29.68 in 10.0 mi South 18.4 mph 34.5 mph N/A Fog , Rain , Tornado Funnel Cloud
3:20 PM 81.0 °F 81.1 °F 57.9 °F 45% 29.68 in 10.0 mi South 18.4 mph 34.5 mph N/A Fog , Rain , Tornado Funnel Cloud
3:22 PM 81.0 °F 81.1 °F 57.9 °F 45% 29.68 in 10.0 mi South 18.4 mph 28.8 mph N/A Fog , Rain , Tornado Funnel Cloud
3:24 PM 81.0 °F 81.1 °F 57.9 °F 45% 29.68 in 10.0 mi South 18.4 mph 28.8 mph N/A Fog , Rain , Tornado Funnel Cloud
3:26 PM 81.0 °F 81.1 °F 57.9 °F 45% 29.68 in 10.0 mi South 21.9 mph 29.9 mph N/A Fog , Rain , Tornado Funnel Cloud
3:28 PM 81.0 °F 81.1 °F 57.9 °F 45% 29.68 in 10.0 mi South 23.0 mph 34.5 mph N/A Fog , Rain , Tornado Funnel Cloud
3:30 PM 80.1 °F 80.6 °F 57.9 °F 47% 29.68 in 10.0 mi South 21.9 mph 34.5 mph N/A Fog , Rain , Tornado Funnel Cloud
3:32 PM 80.1 °F 80.6 °F 57.9 °F 47% 29.68 in 10.0 mi South 18.4 mph 34.5 mph N/A Fog , Rain , Tornado Funnel Cloud
3:34 PM 81.0 °F 81.1 °F 57.9 °F 45% 29.68 in 10.0 mi South 24.2 mph 34.5 mph N/A Fog , Rain , Tornado Funnel Cloud
3:36 PM 81.0 °F 81.1 °F 57.9 °F 45% 29.68 in 10.0 mi South 24.2 mph 34.5 mph N/A Fog , Rain , Tornado Funnel Cloud
3:38 PM 80.1 °F 80.6 °F 57.9 °F 47% 29.68 in 10.0 mi South 23.0 mph 32.2 mph N/A Fog , Rain , Tornado Funnel Cloud
3:40 PM 80.1 °F 80.6 °F 57.9 °F 47% 29.68 in 10.0 mi South 20.7 mph 32.2 mph N/A Fog , Rain , Tornado Funnel Cloud
3:42 PM 81.0 °F 81.1 °F 57.9 °F 45% 29.67 in 10.0 mi South 19.6 mph 32.2 mph N/A Fog , Rain , Tornado Funnel Cloud
3:44 PM 81.0 °F 81.1 °F 57.9 °F 45% 29.67 in 10.0 mi South 20.7 mph 32.2 mph N/A Fog , Rain , Tornado Funnel Cloud
3:46 PM 80.6 °F 80.8 °F 57.2 °F 45% 29.67 in 10.0 mi South 24.2 mph 32.2 mph N/A Fog , Rain , Tornado Funnel Cloud
3:48 PM 80.6 °F 80.8 °F 57.2 °F 45% 29.67 in 10.0 mi South 19.6 mph 31.1 mph N/A Fog , Rain , Tornado Funnel Cloud
3:50 PM 80.6 °F 80.8 °F 57.2 °F 45% 29.67 in 10.0 mi South 20.7 mph 31.1 mph N/A Fog , Rain , Tornado Funnel Cloud
3:52 PM 80.6 °F 80.8 °F 57.2 °F 45% 29.67 in 10.0 mi South 19.6 mph 31.1 mph N/A Fog , Rain , Tornado Funnel Cloud
3:54 PM 82.0 °F 82.0 °F 57.9 °F 44% 29.66 in 10.0 mi South 19.6 mph 31.1 mph N/A Fog , Rain , Tornado Funnel Cloud
3:56 PM 82.0 °F 82.0 °F 57.9 °F 44% 29.66 in 10.0 mi South 20.7 mph 29.9 mph N/A Fog , Rain , Tornado Funnel Cloud
3:58 PM 82.0 °F 82.0 °F 57.9 °F 44% 29.66 in 10.0 mi South 19.6 mph 29.9 mph N/A Fog , Rain , Tornado Funnel Cloud
4:00 PM 82.0 °F 82.0 °F 57.9 °F 44% 29.66 in 10.0 mi South 20.7 mph 29.9 mph N/A Fog , Rain , Tornado Funnel Cloud
4:02 PM 82.0 °F 82.0 °F 57.9 °F 44% 29.66 in 10.0 mi South 21.9 mph 29.9 mph N/A Fog , Rain , Tornado Funnel Cloud
4:04 PM 82.0 °F 82.0 °F 57.9 °F 44% 29.66 in 10.0 mi South 20.7 mph 31.1 mph N/A Fog , Rain , Tornado Funnel Cloud
4:06 PM 82.0 °F 82.0 °F 57.9 °F 44% 29.66 in 10.0 mi South 23.0 mph 31.1 mph N/A Fog , Rain , Tornado Funnel Cloud
4:08 PM 82.0 °F 82.0 °F 57.9 °F 44% 29.65 in 10.0 mi South 24.2 mph 34.5 mph N/A Fog , Rain , Tornado Funnel Cloud
4:10 PM 82.0 °F 82.0 °F 57.9 °F 44% 29.65 in 10.0 mi South 23.0 mph 34.5 mph N/A Fog , Rain , Tornado Funnel Cloud
4:12 PM 82.0 °F 82.0 °F 57.9 °F 44% 29.65 in 10.0 mi South 25.3 mph 34.5 mph N/A Fog , Rain , Tornado Funnel Cloud
4:14 PM 82.0 °F 82.0 °F 57.9 °F 44% 29.65 in 10.0 mi South 23.0 mph 34.5 mph N/A Fog , Rain , Tornado Funnel Cloud
4:16 PM 82.0 °F 82.0 °F 57.9 °F 44% 29.65 in 10.0 mi South 23.0 mph 34.5 mph N/A Fog , Rain , Tornado Funnel Cloud
4:18 PM 81.0 °F 81.1 °F 57.9 °F 45% 29.65 in 10.0 mi South 21.9 mph 33.4 mph N/A Fog , Rain , Tornado Funnel Cloud
4:20 PM 81.0 °F 81.1 °F 57.9 °F 45% 29.65 in 10.0 mi South 21.9 mph 33.4 mph N/A Fog , Rain , Tornado Funnel Cloud
4:22 PM 81.0 °F 81.1 °F 57.9 °F 45% 29.65 in 10.0 mi South 18.4 mph 31.1 mph N/A Fog , Rain , Tornado Funnel Cloud
4:24 PM 81.0 °F 81.1 °F 57.9 °F 45% 29.65 in 10.0 mi South 19.6 mph 31.1 mph N/A Fog , Rain , Tornado Funnel Cloud
4:26 PM 81.0 °F 81.1 °F 57.9 °F 45% 29.65 in 10.0 mi SSW 25.3 mph 32.2 mph N/A Fog , Rain , Tornado Funnel Cloud
4:28 PM 82.0 °F 82.0 °F 57.9 °F 44% 29.65 in 10.0 mi South 21.9 mph 35.7 mph N/A Fog , Rain , Tornado Funnel Cloud
4:30 PM 82.0 °F 82.0 °F 57.9 °F 44% 29.65 in 10.0 mi South 18.4 mph 35.7 mph N/A Fog , Rain , Tornado Funnel Cloud
4:32 PM 82.0 °F 82.1 °F 59.0 °F 45% 29.65 in 10.0 mi South 21.9 mph 35.7 mph N/A Fog , Rain , Tornado Funnel Cloud
4:34 PM 81.0 °F 81.1 °F 57.9 °F 45% 29.65 in 10.0 mi South 20.7 mph 35.7 mph N/A Fog , Rain , Tornado Funnel Cloud
4:36 PM 81.0 °F 81.1 °F 57.9 °F 45% 29.65 in 10.0 mi South 23.0 mph 35.7 mph N/A Fog , Rain , Tornado Funnel Cloud
4:38 PM 82.0 °F 82.0 °F 57.9 °F 44% 29.65 in 10.0 mi South 24.2 mph 34.5 mph N/A Fog , Rain , Tornado Funnel Cloud
4:40 PM 81.0 °F 81.1 °F 57.9 °F 45% 29.65 in 10.0 mi South 23.0 mph 34.5 mph N/A Fog , Rain , Tornado Funnel Cloud
4:42 PM 81.0 °F 81.1 °F 57.9 °F 45% 29.65 in 10.0 mi South 17.3 mph 34.5 mph N/A Fog , Rain , Tornado Funnel Cloud
4:44 PM 82.0 °F 82.0 °F 57.9 °F 44% 29.65 in 10.0 mi South 19.6 mph 34.5 mph N/A Fog , Rain , Tornado Funnel Cloud
4:46 PM 82.4 °F 82.5 °F 59.0 °F 45% 29.65 in 10.0 mi South 21.9 mph 34.5 mph N/A Fog , Rain , Tornado Funnel Cloud
4:48 PM 82.4 °F 82.0 °F 57.2 °F 42% 29.65 in 10.0 mi South 19.6 mph 32.2 mph N/A Fog , Rain , Tornado Funnel Cloud
4:50 PM 82.4 °F 82.0 °F 57.2 °F 42% 29.65 in 10.0 mi South 21.9 mph 32.2 mph N/A Fog , Rain , Tornado Funnel Cloud
4:52 PM 82.0 °F 82.0 °F 57.9 °F 44% 29.65 in 10.0 mi South 21.9 mph 32.2 mph N/A Fog , Rain , Tornado Funnel Cloud
4:54 PM 81.0 °F 81.1 °F 57.9 °F 45% 29.65 in 10.0 mi South 24.2 mph 33.4 mph N/A Fog , Rain , Tornado Funnel Cloud
4:56 PM 81.0 °F 81.1 °F 57.9 °F 45% 29.64 in 10.0 mi South 24.2 mph 33.4 mph N/A Fog , Rain , Tornado Funnel Cloud
4:58 PM 81.0 °F 81.1 °F 57.9 °F 45% 29.65 in 10.0 mi South 21.9 mph 33.4 mph N/A Fog , Rain , Tornado Funnel Cloud
5:00 PM 81.0 °F 81.1 °F 57.9 °F 45% 29.64 in 10.0 mi South 18.4 mph 33.4 mph N/A Fog , Rain , Tornado Funnel Cloud
5:02 PM 81.0 °F 81.3 °F 59.0 °F 47% 29.64 in 10.0 mi South 19.6 mph 33.4 mph N/A Fog , Rain , Tornado Funnel Cloud
5:04 PM 81.0 °F 81.3 °F 59.0 °F 47% 29.65 in 10.0 mi South 16.1 mph 29.9 mph N/A Fog , Rain , Tornado Funnel Cloud
5:06 PM 82.0 °F 82.1 °F 59.0 °F 45% 29.65 in 10.0 mi South 17.3 mph 29.9 mph N/A Fog , Rain , Tornado Funnel Cloud
5:08 PM 82.0 °F 82.1 °F 59.0 °F 45% 29.65 in 10.0 mi South 20.7 mph 28.8 mph N/A Fog , Rain , Tornado Funnel Cloud
5:10 PM 82.0 °F 82.0 °F 57.9 °F 44% 29.65 in 10.0 mi South 21.9 mph 35.7 mph N/A Fog , Rain , Tornado Funnel Cloud
5:12 PM 82.0 °F 82.0 °F 57.9 °F 44% 29.65 in 10.0 mi South 20.7 mph 35.7 mph N/A Fog , Rain , Tornado Funnel Cloud
5:14 PM 81.0 °F 81.1 °F 57.9 °F 45% 29.65 in 10.0 mi South 16.1 mph 35.7 mph N/A Fog , Rain , Tornado Funnel Cloud
5:16 PM 81.0 °F 81.1 °F 57.9 °F 45% 29.65 in 10.0 mi South 17.3 mph 35.7 mph N/A Fog , Rain , Tornado Funnel Cloud
5:18 PM 81.0 °F 81.1 °F 57.9 °F 45% 29.65 in 10.0 mi South 24.2 mph 35.7 mph N/A Fog , Rain , Tornado Funnel Cloud
5:20 PM 81.0 °F 81.1 °F 57.9 °F 45% 29.65 in 10.0 mi South 21.9 mph 31.1 mph N/A Fog , Rain , Tornado Funnel Cloud
5:22 PM 80.1 °F 80.6 °F 57.9 °F 47% 29.65 in 10.0 mi South 23.0 mph 32.2 mph N/A Fog , Rain , Tornado Funnel Cloud
5:24 PM 80.1 °F 80.6 °F 57.9 °F 47% 29.65 in 10.0 mi South 24.2 mph 32.2 mph N/A Fog , Rain , Tornado Funnel Cloud
5:26 PM 81.0 °F 81.1 °F 57.9 °F 45% 29.64 in 10.0 mi South 17.3 mph 32.2 mph N/A Fog , Rain , Tornado Funnel Cloud
5:28 PM 81.0 °F 81.1 °F 57.9 °F 45% 29.64 in 10.0 mi South 21.9 mph 32.2 mph N/A Fog , Rain , Tornado Funnel Cloud
5:30 PM 81.0 °F 81.1 °F 57.9 °F 45% 29.65 in 10.0 mi South 21.9 mph 33.4 mph N/A Fog , Rain , Tornado Funnel Cloud
5:32 PM 81.0 °F 81.1 °F 57.9 °F 45% 29.64 in 10.0 mi South 20.7 mph 33.4 mph N/A Fog , Rain , Tornado Funnel Cloud
5:34 PM 81.0 °F 81.1 °F 57.9 °F 45% 29.64 in 10.0 mi South 18.4 mph 33.4 mph N/A Fog , Rain , Tornado Funnel Cloud
5:36 PM 81.0 °F 81.1 °F 57.9 °F 45% 29.64 in 10.0 mi South 16.1 mph 33.4 mph N/A Fog , Rain , Tornado Funnel Cloud
5:38 PM 81.0 °F 81.1 °F 57.9 °F 45% 29.64 in 10.0 mi South 19.6 mph 33.4 mph N/A Fog , Rain , Tornado Funnel Cloud
5:40 PM 81.0 °F 81.1 °F 57.9 °F 45% 29.64 in 10.0 mi South 17.3 mph 31.1 mph N/A Fog , Rain , Tornado Funnel Cloud
5:42 PM 81.0 °F 81.1 °F 57.9 °F 45% 29.64 in 10.0 mi South 20.7 mph 31.1 mph N/A Fog , Rain , Tornado Funnel Cloud
5:44 PM 80.1 °F 80.6 °F 57.9 °F 47% 29.65 in 10.0 mi South 20.7 mph 31.1 mph N/A Fog , Rain , Tornado Funnel Cloud
5:46 PM 80.6 °F 80.8 °F 57.2 °F 45% 29.64 in 10.0 mi South 21.9 mph 34.5 mph N/A Fog , Rain , Tornado Funnel Cloud
5:48 PM 80.6 °F 80.8 °F 57.2 °F 45% 29.64 in 10.0 mi South 18.4 mph 34.5 mph N/A Fog , Rain , Tornado Funnel Cloud
5:50 PM 80.6 °F 80.8 °F 57.2 °F 45% 29.64 in 10.0 mi South 18.4 mph 34.5 mph N/A Fog , Rain , Tornado Funnel Cloud
5:52 PM 80.1 °F 80.6 °F 57.9 °F 47% 29.64 in 10.0 mi South 17.3 mph 34.5 mph N/A Fog , Rain , Tornado Funnel Cloud
5:54 PM 80.6 °F 80.8 °F 57.2 °F 45% 29.64 in 10.0 mi South 18.4 mph 34.5 mph N/A Fog , Rain , Tornado Funnel Cloud
5:56 PM 80.6 °F 80.8 °F 57.2 °F 45% 29.63 in 10.0 mi South 17.3 mph 32.2 mph N/A Fog , Rain , Tornado Funnel Cloud
5:58 PM 80.6 °F 80.8 °F 57.2 °F 45% 29.64 in 10.0 mi South 17.3 mph 32.2 mph N/A Fog , Rain , Tornado Funnel Cloud
6:00 PM 80.6 °F 80.8 °F 57.2 °F 45% 29.64 in 10.0 mi South 18.4 mph 25.3 mph N/A Fog , Rain , Tornado Funnel Cloud
6:02 PM 80.6 °F 80.8 °F 57.2 °F 45% 29.64 in 10.0 mi South 21.9 mph 28.8 mph N/A Fog , Rain , Tornado Funnel Cloud
6:04 PM 80.6 °F 80.8 °F 57.2 °F 45% 29.64 in 10.0 mi South 18.4 mph 28.8 mph N/A Fog , Rain , Tornado Funnel Cloud
6:06 PM 80.6 °F 80.8 °F 57.2 °F 45% 29.64 in 10.0 mi South 19.6 mph 28.8 mph N/A Fog , Rain , Tornado Funnel Cloud
6:08 PM 80.6 °F 80.8 °F 57.2 °F 45% 29.64 in 10.0 mi South 18.4 mph 28.8 mph N/A Fog , Rain , Tornado Funnel Cloud
6:10 PM 80.6 °F 80.8 °F 57.2 °F 45% 29.64 in 10.0 mi South 20.7 mph 28.8 mph N/A Fog , Rain , Tornado Funnel Cloud
6:12 PM 80.1 °F 80.6 °F 57.9 °F 47% 29.64 in 10.0 mi South 23.0 mph 32.2 mph N/A Fog , Rain , Tornado Funnel Cloud
6:14 PM 80.1 °F 80.4 °F 57.0 °F 45% 29.64 in 10.0 mi South 18.4 mph 32.2 mph N/A Fog , Rain , Tornado Funnel Cloud
6:16 PM 80.1 °F 80.4 °F 57.0 °F 45% 29.64 in 10.0 mi South 20.7 mph 34.5 mph N/A Fog , Rain , Tornado Funnel Cloud
6:18 PM 80.1 °F 80.4 °F 57.0 °F 45% 29.64 in 10.0 mi South 25.3 mph 34.5 mph N/A Fog , Rain , Tornado Funnel Cloud
6:20 PM 80.1 °F 80.4 °F 57.0 °F 45% 29.64 in 10.0 mi South 21.9 mph 34.5 mph N/A Fog , Rain , Tornado Funnel Cloud
6:22 PM 80.1 °F 80.4 °F 57.0 °F 45% 29.64 in 10.0 mi South 20.7 mph 34.5 mph N/A Fog , Rain , Tornado Funnel Cloud
6:24 PM 80.1 °F 80.4 °F 57.0 °F 45% 29.64 in 10.0 mi South 18.4 mph 34.5 mph N/A Fog , Rain , Tornado Funnel Cloud
6:26 PM 80.1 °F 80.4 °F 57.0 °F 45% 29.64 in 10.0 mi South 19.6 mph 32.2 mph N/A Fog , Rain , Tornado Funnel Cloud
6:31 PM - - - N/A% - - South 23.0 mph 32.2 mph N/A Fog , Rain Rain
6:33 PM 80.6 °F 80.8 °F 57.2 °F 45% 29.64 in - South 25.3 mph 33.4 mph N/A Fog , Rain Rain
6:35 PM 80.6 °F 80.5 °F 55.4 °F 42% 29.65 in - South 17.3 mph 33.4 mph N/A Fog , Rain Rain
6:37 PM 80.6 °F 80.5 °F 55.4 °F 42% 29.64 in - South 20.7 mph 33.4 mph N/A Fog , Rain Rain
6:39 PM 80.6 °F 80.8 °F 57.2 °F 45% 29.65 in 10.0 mi South 18.4 mph 33.4 mph N/A Fog , Rain , Tornado Funnel Cloud
6:41 PM 78.8 °F - 57.2 °F 47% 29.65 in 10.0 mi South 20.7 mph 33.4 mph N/A Fog , Rain , Tornado Funnel Cloud
6:43 PM 78.8 °F - 55.4 °F 44% 29.65 in 10.0 mi South 17.3 mph 31.1 mph N/A Fog , Rain , Tornado Funnel Cloud
6:57 PM - - - N/A% - - North - - N/A Fog , Rain , Tornado Funnel Cloud
6:59 PM - - - N/A% 29.65 in - South 17.3 mph 29.9 mph N/A Fog , Rain Rain
7:01 PM 78.8 °F - 55.4 °F 44% 29.65 in - South 21.9 mph 33.4 mph N/A Fog , Rain Rain
7:03 PM 78.8 °F - 55.4 °F 44% 29.65 in - South 20.7 mph 33.4 mph N/A Fog , Rain Rain